{"data":{"norad_id":62474,"intl_designator":"2024-254N","name":"STARLINK-11502 [DTC]","alt_names":[],"object_type":"PAYLOAD","status":"ACTIVE","operator":null,"country":"US","launch_date":"2024-12-31","launch_site_code":"AFETR","launch_vehicle":null,"mission":null,"orbit_class":"UNKNOWN","rcs_meters":null,"size_class":null,"mass_kg":null,"dimensions":null,"purposes":["comms"],"wikipedia_slug":null,"has_3d_model":false,"image_url":null,"decayed_at":null,"tle_current":{"epoch":"2026-05-24T22:29:28.595328Z","epoch_age_seconds":70733,"freshness":"FRESH","line1":"1 62474U 24254N   26144.93713652  .00239636  00000+0  18087-2 0  9997","line2":"2 62474  42.9995 123.3244 0001163 212.3277 147.7520 15.70958313 81396","mean_motion":15.70958313,"eccentricity":0.0001163,"inclination_deg":42.9995,"raan_deg":123.3244,"arg_perigee_deg":212.3277,"mean_anomaly_deg":147.752,"bstar":0.0018087,"rev_number":8139,"period_min":91.663794518525,"perigee_km":355.37372371209,"apogee_km":356.94012047837,"semimajor_km":6734.2939220952,"source":"CELESTRAK","updated_at":"2026-05-25T13:38:19.693810Z"}}}